Regional Weather Roundup
Issued by NWS

Home | Current Version | Previous Version | Text Only | Print | Product List | Glossary On
Versions: 1 2 3 4 5 6 7 8 9 10 11 12 13 14 15 16 17 18 19 20 21 22 23 24 25 26 27 28 29 30 31 32 33 34 35 36 37 38 39 40 41 42 43 44 45 46 47 48 49 50
000
ASUS43 KFSD 290302
RWRSD

WEATHER ROUNDUP FOR SOUTH DAKOTA
NATIONAL WEATHER SERVICE SIOUX FALLS SD
1000 PM CDT THU JUL 28 2016

NOTE: "FAIR" INDICATES FEW OR NO CLOUDS BELOW 12,000 FEET WITH NO
SIGNIFICANT WEATHER AND/OR OBSTRUCTIONS TO VISIBILITY.


SDZ001>005-009-010-012>017-290400-
NORTHWEST AND NORTH CENTRAL SOUTH DAKOTA

CITY           SKY/WX    TMP DP  RH WIND       PRES   REMARKS
BUFFALO          N/A     65  62  90 E7        30.09R
FAITH            N/A     62  60  93 N6        30.13R
MOBRIDGE       MOCLDY    68  56  65 N8        30.07S
$$

SDZ012>016-024>037-041>051-057-063-072>074-290400-
SOUTHWEST AND SOUTH CENTRAL SOUTH DAKOTA

CITY           SKY/WX    TMP DP  RH WIND       PRES   REMARKS
RAPID CTY ARPT CLEAR     62  57  83 NE5       30.14R
PIERRE         CLOUDY    65  62  90 SW3       30.07S
CUSTER         CLEAR     58  53  84 CALM      30.25R
PHILIP         CLOUDY    63  61  93 NE3       30.11S
PINE RIDGE     CLEAR     62  59  90 E7        30.14S
WINNER         RAIN      64  61  90 SW5       30.10S FOG
$$

SDZ004>011-016>023-039-040-290400-
NORTHEAST SOUTH DAKOTA

CITY           SKY/WX    TMP DP  RH WIND       PRES   REMARKS
ABERDEEN       CLEAR     67  61  81 E3        30.06S
WATERTOWN      CLOUDY    70  57  63 E3        30.09R
BROOKINGS      PTCLDY    65  58  78 NE6       30.08R
SISSETON         N/A     68  64  87 CALM      30.06R
$$

SDZ017-020-022-023-036>040-048>070-290400-
SOUTHEAST SOUTH DAKOTA

CITY           SKY/WX    TMP DP  RH WIND       PRES   REMARKS
SIOUX FALLS    PTCLDY    64  58  80 NE8       30.06R
HURON          CLOUDY    71  56  58 SE6       30.06R
CHAMBERLAIN    CLOUDY    72  64  76 NW6       30.08R
MITCHELL       MOCLDY    69  61  75 E5        30.06R
YANKTON        CLOUDY    70  61  73 N7        30.04R
$$

ABBREVIATIONS USED IN REMARKS
   TC - TEMPERATURE IN CELSIUS
  WCI - WIND CHILL INDEX
   HX - HEAT INDEX
  VSB - VISIBILITY





USA.gov is the U.S. government's official web portal to all federal, state and local government web resources and services.